星链-1984 (STARLINK-1984 )

导读 | 豆包AI

STARLINK-1984是美国太空探索技术公司(SpaceX)星链星座的卫星,于2021年2月4日发射升空。星链项目旨在构建全球卫星互联网,该卫星属于低轨卫星,承担卫星通信服务任务,扩展了星链系统在全球范围的信号覆盖与网络服务能力。

基本信息
目录编号:
47581
目录名称:
STARLINK-1984
国际标识:
2021-009AK
轨道中心:
EARTH
卫星名称:
星链-1984
卫星全名:
星链-1984 (STARLINK-1984 )
卫星状态:
已陨落 最后检测时间 2024-11-10
发射日期:
2021-02-04 UTC
国别 :
美国 (US)
星等 :
--
轨道信息
数据来源 国际轨道数据
星历时间: 2024-11-10T06:24:37+0800
轨道信息已过期489天
半长轴: 6566.425km
偏心率: 0.0006067
轨道倾角: 53.026°
近地点辐角 38.726°
升交点赤经 313.116°
平近点角 66.220°
近地点: 184.306km
远地点: 192.274km
周期: 88.258分钟
每日圈数: 16.315837
详细信息
固有亮度:
5
最大亮度:
2.5
卫星平台:
Starlink V1.0
覆盖范围:
全球
运营商:
太空探索技术公司
运营商所在国:
美国
制造商(研发单位):
太空探索技术公司
制造商所在国:
美国
使用方式:
暂无
卫星简介
星链(Starlink)计划是由太空探索技术公司(SpaceX)提出的一个巨型低轨卫星互联网星座项目,计划在2019年至2024年间在太空搭建由约1.2万颗卫星组成的“星链”网络,其中1584颗将部署在地球上空550千米处的近地轨道,并从2020年开始工作。该卫星仍在工作。